| time (UTC) | temp F | wind direction | speed knots | gust knots | rain 1hr in | rain 24hr in | rain mn in | humidity % | barometer mb |
| 20260506102956 | 53 | 319 | 0.0 | 1.7 | 0.00 | 0.00 | 0.00 | 83 | 1010.7 |
| 20260506102458 | 53 | 0 | 0.0 | 1.7 | 0.00 | 0.00 | 0.00 | 82 | 1010.6 |
| 20260506101444 | 53 | 9 | 0.0 | 0.9 | 0.00 | 0.00 | 0.00 | 82 | 1010.4 |
| 20260506100944 | 53 | 0 | 0.0 | 2.6 | 0.00 | 0.00 | 0.00 | 82 | 1010.4 |
| 20260506100445 | 53 | 53 | 0.0 | 2.6 | 0.00 | 0.00 | 0.00 | 82 | 1010.3 |
| 20260506095942 | 53 | 30 | 0.0 | 0.9 | 0.00 | 0.00 | 0.00 | 82 | 1010.3 |
| 20260506095524 | 54 | 32 | 0.0 | 4.3 | 0.00 | 0.00 | 0.00 | 82 | 1010.2 |
| 20260506095024 | 54 | 10 | 0.0 | 4.3 | 0.00 | 0.00 | 0.00 | 81 | 1010.2 |
| 20260506094527 | 54 | 342 | 0.0 | 1.7 | 0.00 | 0.00 | 0.00 | 81 | 1010.1 |
| 20260506093941 | 54 | 323 | 0.0 | 1.7 | 0.00 | 0.00 | 0.00 | 81 | 1010.1 |
| 20260506093008 | 54 | 0 | 0.0 | 0.9 | 0.00 | 0.00 | 0.00 | 81 | 1010.1 |
| 20260506092511 | 54 | 336 | 0.0 | 0.9 | 0.00 | 0.00 | 0.00 | 81 | 1010.0 |
| 20260506092013 | 55 | 17 | 0.0 | 0.9 | 0.00 | 0.00 | 0.00 | 81 | 1010.0 |
| 20260506091519 | 55 | 342 | 0.0 | 0.9 | 0.00 | 0.00 | 0.00 | 81 | 1009.8 |
| 20260506090513 | 55 | 355 | 0.0 | 0.9 | 0.00 | 0.00 | 0.00 | 81 | 1009.7 |
| 20260506090015 | 55 | 31 | 0.0 | 0.9 | 0.00 | 0.00 | 0.00 | 80 | 1009.6 |
| 20260506085522 | 55 | 42 | 0.0 | 0.9 | 0.00 | 0.00 | 0.00 | 80 | 1009.6 |
| 20260506084944 | 55 | 336 | 0.0 | 1.7 | 0.00 | 0.00 | 0.00 | 80 | 1009.6 |
| 20260506084445 | 55 | 0 | 0.0 | 1.7 | 0.00 | 0.00 | 0.00 | 80 | 1009.6 |
| 20260506083947 | 55 | 43 | 0.0 | 1.7 | 0.00 | 0.00 | 0.00 | 80 | 1009.6 |
| 20260506083450 | 55 | 44 | 0.0 | 0.9 | 0.00 | 0.00 | 0.00 | 80 | 1009.3 |
| 20260506082951 | 55 | 40 | 0.0 | 2.6 | 0.00 | 0.00 | 0.00 | 79 | 1009.6 |
| 20260506082459 | 55 | 24 | 0.0 | 2.6 | 0.00 | 0.00 | 0.00 | 79 | 1009.7 |
| 20260506081956 | 55 | 337 | 0.0 | 0.9 | 0.00 | 0.00 | 0.00 | 80 | 1009.6 |
| 20260506081459 | 55 | 34 | 0.0 | 0.9 | 0.00 | 0.00 | 0.00 | 80 | 1009.3 |
| 20260506080958 | 55 | 323 | 0.0 | 0.9 | 0.00 | 0.00 | 0.00 | 80 | 1009.1 |
| 20260506080504 | 55 | 33 | 0.0 | 0.9 | 0.00 | 0.00 | 0.00 | 80 | 1009.1 |
| 20260506073519 | 56 | 46 | 0.0 | 0.9 | 0.00 | 0.00 | 0.00 | 80 | 1008.9 |
| 20260506072935 | 56 | 20 | 0.0 | 1.7 | 0.00 | 0.00 | 0.00 | 80 | 1009.1 |
| 20260506072435 | 56 | 323 | 0.0 | 1.7 | 0.00 | 0.00 | 0.00 | 80 | 1009.1 |
| 20260506071936 | 56 | 12 | 0.0 | 1.7 | 0.00 | 0.00 | 0.00 | 80 | 1008.9 |
| 20260506071439 | 56 | 5 | 0.0 | 5.2 | 0.00 | 0.00 | 0.00 | 81 | 1009.2 |
| 20260506070509 | 56 | 339 | 0.0 | 0.9 | 0.00 | 0.00 | 0.00 | 81 | 1009.2 |
| 20260506062506 | 56 | 349 | 0.0 | 1.7 | 0.00 | 0.00 | 0.00 | 81 | 1009.4 |
| 20260506061920 | 56 | 22 | 0.0 | 1.7 | 0.00 | 0.00 | 0.00 | 81 | 1009.3 |
| 20260506060949 | 56 | 5 | 0.0 | 1.7 | 0.00 | 0.00 | 0.00 | 82 | 1009.2 |
| 20260506060451 | 57 | 13 | 0.0 | 1.7 | 0.00 | 0.00 | 0.00 | 81 | 1009.2 |
| 20260506050953 | 58 | 336 | 0.0 | 4.3 | 0.00 | 0.00 | 0.00 | 82 | 1009.1 |
| 20260506050453 | 58 | 345 | 0.0 | 1.7 | 0.00 | 0.00 | 0.00 | 82 | 1009.2 |
| 20260506044932 | 59 | 59 | 0.0 | 1.7 | 0.00 | 0.00 | 0.00 | 82 | 1009.1 |
| 20260506044431 | 59 | 30 | 0.0 | 0.9 | 0.00 | 0.00 | 0.00 | 82 | 1009.1 |
| 20260506043458 | 60 | 355 | 0.0 | 1.7 | 0.00 | 0.00 | 0.00 | 83 | 1008.8 |
| 20260506042956 | 60 | 307 | 0.0 | 1.7 | 0.00 | 0.00 | 0.00 | 83 | 1008.9 |
| 20260506041935 | 60 | 20 | 0.0 | 2.6 | 0.00 | 0.00 | 0.00 | 83 | 1008.7 |
| 20260506041439 | 61 | 11 | 0.0 | 2.6 | 0.00 | 0.00 | 0.00 | 82 | 1008.7 |
| 20260506040939 | 61 | 329 | 0.0 | 1.7 | 0.00 | 0.00 | 0.00 | 83 | 1008.6 |
| 20260506035929 | 62 | 36 | 0.0 | 1.7 | 0.00 | 0.00 | 0.00 | 83 | 1008.4 |
| 20260506035432 | 62 | 24 | 0.0 | 1.7 | 0.00 | 0.00 | 0.00 | 83 | 1008.3 |
| 20260506034933 | 62 | 24 | 0.0 | 1.7 | 0.00 | 0.00 | 0.00 | 83 | 1008.4 |
| 20260506034438 | 62 | 337 | 0.0 | 2.6 | 0.00 | 0.00 | 0.00 | 83 | 1008.5 |
| 20260506033935 | 62 | 350 | 0.0 | 2.6 | 0.00 | 0.00 | 0.00 | 83 | 1008.4 |
| 20260506033435 | 62 | 10 | 0.0 | 1.7 | 0.00 | 0.00 | 0.00 | 82 | 1008.3 |
| 20260506032935 | 63 | 0 | 0.0 | 1.7 | 0.00 | 0.00 | 0.00 | 83 | 1008.3 |
| 20260506032437 | 63 | 350 | 0.0 | 1.7 | 0.00 | 0.00 | 0.00 | 82 | 1008.2 |
| 20260506031932 | 63 | 323 | 0.0 | 1.7 | 0.00 | 0.00 | 0.00 | 82 | 1008.1 |
| 20260506031434 | 64 | 334 | 0.0 | 1.7 | 0.00 | 0.00 | 0.00 | 82 | 1008.0 |
| 20260506030936 | 64 | 355 | 0.0 | 1.7 | 0.00 | 0.00 | 0.00 | 82 | 1007.8 |
| 20260506030435 | 64 | 306 | 0.0 | 1.7 | 0.00 | 0.00 | 0.00 | 82 | 1007.8 |
| 20260506025936 | 64 | 0 | 0.0 | 1.7 | 0.00 | 0.00 | 0.00 | 82 | 1007.7 |
| 20260506025449 | 65 | 342 | 0.0 | 1.7 | 0.00 | 0.00 | 0.00 | 82 | 1007.6 |
| 20260506024946 | 65 | 338 | 0.0 | 2.6 | 0.00 | 0.00 | 0.00 | 81 | 1007.3 |
| 20260506024407 | 65 | 332 | 0.0 | 2.6 | 0.00 | 0.00 | 0.00 | 81 | 1007.3 |
| 20260506023948 | 66 | 322 | 0.0 | 1.7 | 0.00 | 0.00 | 0.00 | 81 | 1007.2 |
| 20260506023446 | 66 | 348 | 0.0 | 1.7 | 0.00 | 0.00 | 0.00 | 81 | 1006.8 |
| 20260506021952 | 67 | 340 | 0.0 | 7.8 | 0.00 | 0.00 | 0.00 | 81 | 1006.5 |
| 20260506021412 | 67 | 18 | 0.0 | 7.8 | 0.00 | 0.00 | 0.00 | 80 | 1006.4 |
| 20260506020911 | 68 | 355 | 0.0 | 1.7 | 0.00 | 0.00 | 0.00 | 81 | 1006.4 |
| 20260506020413 | 68 | 355 | 0.0 | 1.7 | 0.00 | 0.00 | 0.00 | 80 | 1006.4 |
| 20260506015953 | 68 | 314 | 0.0 | 0.9 | 0.00 | 0.00 | 0.00 | 80 | 1006.1 |
| 20260506015412 | 68 | 23 | 0.0 | 1.7 | 0.00 | 0.00 | 0.00 | 80 | 1006.0 |
| 20260506014911 | 68 | 5 | 0.0 | 1.7 | 0.00 | 0.00 | 0.00 | 80 | 1006.0 |
| 20260506013942 | 69 | 22 | 0.0 | 0.9 | 0.00 | 0.00 | 0.00 | 79 | 1006.1 |
| 20260506013443 | 69 | 16 | 0.0 | 0.9 | 0.00 | 0.00 | 0.00 | 79 | 1006.0 |
| 20260506012935 | 69 | 336 | 0.0 | 1.7 | 0.00 | 0.00 | 0.00 | 79 | 1005.7 |
| 20260506012432 | 70 | 26 | 0.0 | 1.7 | 0.00 | 0.00 | 0.00 | 78 | 1005.6 |
| 20260506011928 | 70 | 18 | 0.0 | 1.7 | 0.00 | 0.00 | 0.00 | 78 | 1005.4 |
| 20260506011423 | 71 | 355 | 0.0 | 6.1 | 0.00 | 0.00 | 0.00 | 78 | 1006.0 |
| 20260506010918 | 71 | 342 | 0.0 | 6.1 | 0.00 | 0.00 | 0.00 | 77 | 1005.0 |
| 20260506010415 | 72 | 45 | 0.0 | 1.7 | 0.00 | 0.00 | 0.00 | 77 | 1005.0 |
| 20260506005912 | 73 | 11 | 0.0 | 1.7 | 0.00 | 0.00 | 0.00 | 77 | 1005.0 |
| 20260506005413 | 73 | 351 | 0.0 | 1.7 | 0.00 | 0.00 | 0.00 | 77 | 1005.1 |
| 20260506004906 | 73 | 30 | 0.0 | 0.9 | 0.00 | 0.00 | 0.00 | 76 | 1004.7 |
| 20260506004405 | 73 | 19 | 0.0 | 0.9 | 0.00 | 0.00 | 0.00 | 76 | 1004.9 |
| 20260506003944 | 74 | 24 | 0.0 | 1.7 | 0.00 | 0.00 | 0.00 | 75 | 1005.0 |
| 20260506003438 | 74 | 338 | 0.0 | 1.7 | 0.00 | 0.00 | 0.00 | 75 | 1004.9 |
| 20260506002933 | 74 | 306 | 0.0 | 0.9 | 0.00 | 0.00 | 0.00 | 75 | 1004.7 |
| 20260506002433 | 74 | 0 | 0.0 | 1.7 | 0.00 | 0.00 | 0.00 | 74 | 1004.8 |
| 20260506001926 | 75 | 336 | 0.0 | 1.7 | 0.00 | 0.00 | 0.00 | 73 | 1004.7 |
| 20260506000905 | 75 | 322 | 0.0 | 1.7 | 0.00 | 0.00 | 0.00 | 73 | 1004.7 |
| 20260505235924 | 76 | 348 | 0.0 | 5.2 | 0.00 | 0.00 | 0.00 | 72 | 1004.8 |
| 20260505235425 | 76 | 304 | 0.0 | 5.2 | 0.00 | 0.00 | 0.00 | 71 | 1004.7 |
| 20260505234922 | 77 | 321 | 0.0 | 1.7 | 0.00 | 0.00 | 0.00 | 71 | 1004.4 |
| 20260505234424 | 77 | 328 | 0.0 | 1.7 | 0.00 | 0.00 | 0.00 | 69 | 1004.2 |
| 20260505233924 | 78 | 329 | 0.0 | 7.8 | 0.00 | 0.00 | 0.00 | 68 | 1004.2 |
| 20260505233419 | 79 | 296 | 0.0 | 7.8 | 0.00 | 0.00 | 0.00 | 68 | 1004.1 |
| 20260505232915 | 80 | 312 | 0.9 | 7.0 | 0.00 | 0.00 | 0.00 | 66 | 1004.4 |
| 20260505231849 | 81 | 339 | 0.9 | 7.8 | 0.00 | 0.00 | 0.00 | 64 | 1003.9 |
| 20260505231430 | 82 | 295 | 0.0 | 1.7 | 0.00 | 0.00 | 0.00 | 63 | 1003.9 |
| 20260505230923 | 82 | 334 | 0.0 | 2.6 | 0.00 | 0.00 | 0.00 | 61 | 1003.6 |
| 20260505230424 | 83 | 355 | 0.0 | 2.6 | 0.00 | 0.00 | 0.00 | 59 | 1003.4 |
| 20260505225840 | 83 | 310 | 0.0 | 0.9 | 0.00 | 0.00 | 0.00 | 58 | 1003.2 |
| 20260505225342 | 84 | 325 | 0.0 | 1.7 | 0.00 | 0.00 | 0.00 | 57 | 1003.3 |
| 20260505224844 | 84 | 316 | 0.0 | 7.0 | 0.00 | 0.00 | 0.00 | 56 | 1003.4 |
| 20260505224426 | 85 | 310 | 0.0 | 7.0 | 0.00 | 0.00 | 0.00 | 56 | 1003.4 |
| 20260505223921 | 85 | 312 | 0.0 | 5.2 | 0.00 | 0.00 | 0.00 | 55 | 1003.2 |
| 20260505222902 | 87 | 336 | 0.0 | 2.6 | 0.00 | 0.00 | 0.00 | 55 | 1003.0 |
| 20260505222400 | 87 | 294 | 0.0 | 1.7 | 0.00 | 0.00 | 0.00 | 54 | 1002.8 |
| 20260505221424 | 88 | 281 | 0.0 | 6.1 | 0.00 | 0.00 | 0.00 | 56 | 1002.7 |
| 20260505220920 | 88 | 244 | 0.0 | 0.9 | 0.00 | 0.00 | 0.00 | 59 | 1002.6 |
| 20260505220420 | 88 | 229 | 0.0 | 0.9 | 0.00 | 0.00 | 0.00 | 59 | 1002.6 |
| 20260505215836 | 88 | 232 | 0.0 | 0.9 | 0.00 | 0.00 | 0.00 | 58 | 1002.7 |
| 20260505215338 | 88 | 228 | 0.0 | 0.9 | 0.00 | 0.00 | 0.00 | 58 | 1002.8 |
| 20260505214919 | 89 | 228 | 0.0 | 0.9 | 0.00 | 0.00 | 0.00 | 56 | 1002.9 |
| 20260505213858 | 90 | 184 | 0.0 | 1.7 | 0.00 | 0.00 | 0.00 | 56 | 1002.9 |
| 20260505213359 | 90 | 227 | 0.0 | 7.0 | 0.00 | 0.00 | 0.00 | 57 | 1002.9 |
| 20260505212858 | 89 | 247 | 0.0 | 7.0 | 0.00 | 0.00 | 0.00 | 57 | 1002.9 |
| 20260505212359 | 89 | 273 | 0.0 | 2.6 | 0.00 | 0.00 | 0.00 | 58 | 1003.0 |
| 20260505211851 | 89 | 194 | 0.0 | 6.1 | 0.00 | 0.00 | 0.00 | 57 | 1003.1 |
| 20260505210835 | 90 | 259 | 0.0 | 3.5 | 0.00 | 0.00 | 0.00 | 58 | 1003.2 |
| 20260505210338 | 89 | 130 | 0.0 | 1.7 | 0.00 | 0.00 | 0.00 | 58 | 1003.3 |
| 20260505205832 | 89 | 251 | 0.0 | 1.7 | 0.00 | 0.00 | 0.00 | 60 | 1003.2 |
| 20260505205418 | 89 | 241 | 0.0 | 2.6 | 0.00 | 0.00 | 0.00 | 59 | 1003.3 |
| 20260505204856 | 89 | 350 | 0.0 | 2.6 | 0.00 | 0.00 | 0.00 | 60 | 1003.3 |
| 20260505204353 | 88 | 182 | 0.0 | 3.5 | 0.00 | 0.00 | 0.00 | 62 | 1003.5 |
| 20260505203855 | 87 | 212 | 0.0 | 3.5 | 0.00 | 0.00 | 0.00 | 62 | 1003.3 |
| 20260505203354 | 86 | 227 | 0.0 | 1.7 | 0.00 | 0.00 | 0.00 | 61 | 1003.4 |
| 20260505202853 | 87 | 160 | 0.0 | 7.0 | 0.00 | 0.00 | 0.00 | 61 | 1003.6 |
| 20260505202352 | 87 | 244 | 0.0 | 7.0 | 0.00 | 0.00 | 0.00 | 63 | 1003.7 |
| 20260505201848 | 87 | 234 | 0.0 | 3.5 | 0.00 | 0.00 | 0.00 | 62 | 1003.7 |
| 20260505201351 | 87 | 225 | 0.0 | 3.5 | 0.00 | 0.00 | 0.00 | 61 | 1003.7 |
| 20260505200414 | 87 | 205 | 0.0 | 6.1 | 0.00 | 0.00 | 0.00 | 62 | 1003.7 |
| 20260505195354 | 87 | 189 | 0.0 | 1.7 | 0.00 | 0.00 | 0.00 | 64 | 1003.6 |
| 20260505194854 | 88 | 216 | 0.0 | 2.6 | 0.00 | 0.00 | 0.00 | 60 | 1003.7 |
| 20260505193918 | 89 | 176 | 0.0 | 7.0 | 0.00 | 0.00 | 0.00 | 65 | 1003.7 |
| 20260505192343 | 86 | 186 | 0.0 | 1.7 | 0.00 | 0.00 | 0.00 | 68 | 1003.7 |
| 20260505191838 | 85 | 187 | 0.0 | 3.5 | 0.00 | 0.00 | 0.00 | 67 | 1003.7 |
| 20260505190906 | 85 | 178 | 0.0 | 2.6 | 0.00 | 0.00 | 0.00 | 68 | 1003.5 |
| 20260505185332 | 85 | 178 | 0.0 | 4.3 | 0.00 | 0.00 | 0.00 | 68 | 1003.7 |
| 20260505184828 | 85 | 220 | 0.9 | 4.3 | 0.00 | 0.00 | 0.00 | 67 | 1003.8 |
| 20260505183855 | 83 | 209 | 0.0 | 2.6 | 0.00 | 0.00 | 0.00 | 69 | 1003.8 |
| 20260505183357 | 84 | 159 | 0.0 | 2.6 | 0.00 | 0.00 | 0.00 | 68 | 1003.8 |
| 20260505182851 | 83 | 182 | 0.0 | 1.7 | 0.00 | 0.00 | 0.00 | 71 | 1003.8 |
| 20260505181833 | 83 | 193 | 0.9 | 8.7 | 0.00 | 0.00 | 0.00 | 69 | 1004.2 |
| 20260505181333 | 83 | 113 | 0.0 | 7.0 | 0.00 | 0.00 | 0.00 | 68 | 1004.1 |
| 20260505180829 | 84 | 235 | 0.0 | 2.6 | 0.00 | 0.00 | 0.00 | 68 | 1003.9 |
| 20260505180333 | 84 | 271 | 0.0 | 2.6 | 0.00 | 0.00 | 0.00 | 68 | 1003.9 |
| 20260505175827 | 84 | 177 | 0.9 | 7.8 | 0.00 | 0.00 | 0.00 | 72 | 1003.8 |
| 20260505175329 | 83 | 219 | 0.9 | 8.7 | 0.00 | 0.00 | 0.00 | 72 | 1003.8 |
| 20260505174908 | 82 | 232 | 0.9 | 8.7 | 0.00 | 0.00 | 0.00 | 72 | 1003.8 |
| 20260505174327 | 82 | 139 | 0.9 | 8.7 | 0.00 | 0.00 | 0.00 | 72 | 1003.9 |
| 20260505173347 | 82 | 109 | 0.0 | 1.7 | 0.00 | 0.00 | 0.00 | 73 | 1003.9 |
| 20260505172847 | 81 | 185 | 0.9 | 5.2 | 0.00 | 0.00 | 0.00 | 74 | 1003.9 |
| 20260505172348 | 80 | 143 | 0.0 | 5.2 | 0.00 | 0.00 | 0.00 | 74 | 1003.8 |
| 20260505171845 | 80 | 211 | 0.0 | 1.7 | 0.00 | 0.00 | 0.00 | 75 | 1004.2 |
| 20260505171348 | 80 | 175 | 0.0 | 2.6 | 0.00 | 0.00 | 0.00 | 75 | 1003.6 |
| 20260505170845 | 80 | 171 | 0.9 | 2.6 | 0.00 | 0.00 | 0.00 | 75 | 1004.2 |
| 20260505170347 | 80 | 188 | 0.0 | 1.7 | 0.00 | 0.00 | 0.00 | 75 | 1003.9 |
| 20260505165841 | 79 | 194 | 0.0 | 2.6 | 0.00 | 0.00 | 0.00 | 75 | 1003.9 |
| 20260505164902 | 79 | 137 | 0.0 | 1.7 | 0.00 | 0.00 | 0.00 | 76 | 1003.7 |
| 20260505164318 | 78 | 145 | 0.0 | 5.2 | 0.00 | 0.00 | 0.00 | 77 | 1004.3 |
| 20260505163858 | 78 | 190 | 0.0 | 5.2 | 0.00 | 0.00 | 0.00 | 76 | 1003.5 |
| 20260505163357 | 78 | 108 | 0.0 | 4.3 | 0.00 | 0.00 | 0.00 | 76 | 1003.6 |
| 20260505162854 | 78 | 228 | 0.0 | 4.3 | 0.00 | 0.00 | 0.00 | 76 | 1004.5 |
| 20260505162356 | 79 | 183 | 0.0 | 3.5 | 0.00 | 0.00 | 0.00 | 75 | 1004.4 |
| 20260505161856 | 79 | 175 | 0.9 | 7.0 | 0.00 | 0.00 | 0.00 | 76 | 1003.9 |
| 20260505161355 | 79 | 192 | 0.9 | 7.0 | 0.00 | 0.00 | 0.00 | 75 | 1003.8 |
| 20260505160849 | 79 | 282 | 0.0 | 4.3 | 0.00 | 0.00 | 0.00 | 76 | 1003.8 |
| 20260505160343 | 80 | 153 | 0.0 | 8.7 | 0.00 | 0.00 | 0.00 | 76 | 1003.7 |
| 20260505153319 | 77 | 140 | 0.0 | 3.5 | 0.00 | 0.00 | 0.00 | 79 | 1003.6 |
| 20260505152855 | 77 | 165 | 0.0 | 1.7 | 0.00 | 0.00 | 0.00 | 79 | 1003.5 |
| 20260505152352 | 77 | 217 | 0.0 | 1.7 | 0.00 | 0.00 | 0.00 | 79 | 1003.7 |
| 20260505151331 | 77 | 165 | 0.0 | 8.7 | 0.00 | 0.00 | 0.00 | 80 | 1003.8 |
| 20260505150823 | 77 | 180 | 0.0 | 8.7 | 0.00 | 0.00 | 0.00 | 80 | 1003.8 |
| 20260505150319 | 76 | 227 | 0.9 | 7.8 | 0.00 | 0.00 | 0.00 | 81 | 1003.9 |
| 20260505124853 | 71 | 116 | 0.0 | 1.7 | 0.00 | 0.00 | 0.00 | 89 | 1003.5 |
| 20260505124354 | 71 | 134 | 0.0 | 1.7 | 0.00 | 0.00 | 0.00 | 89 | 1003.4 |
| 20260505123852 | 71 | 209 | 0.0 | 1.7 | 0.00 | 0.00 | 0.00 | 89 | 1003.2 |
| 20260505123356 | 71 | 173 | 0.0 | 2.6 | 0.00 | 0.00 | 0.00 | 89 | 1003.2 |
| 20260505122854 | 70 | 131 | 0.0 | 2.6 | 0.00 | 0.00 | 0.00 | 89 | 1003.3 |
| 20260505122314 | 70 | 163 | 0.0 | 2.6 | 0.00 | 0.00 | 0.00 | 91 | 1003.2 |
| 20260505121853 | 70 | 147 | 0.0 | 1.7 | 0.00 | 0.00 | 0.00 | 91 | 1003.1 |
| 20260505121355 | 70 | 177 | 0.0 | 0.9 | 0.00 | 0.00 | 0.00 | 91 | 1003.2 |
| 20260505120853 | 70 | 171 | 0.0 | 0.9 | 0.00 | 0.00 | 0.00 | 91 | 1003.1 |
| 20260505120314 | 70 | 161 | 0.0 | 2.6 | 0.00 | 0.00 | 0.00 | 91 | 1003.1 |
| 20260505115341 | 69 | 133 | 0.0 | 0.9 | 0.00 | 0.00 | 0.00 | 91 | 1002.9 |
| 20260505114325 | 70 | 157 | 0.0 | 4.3 | 0.00 | 0.00 | 0.00 | 91 | 1002.9 |
| 20260505113822 | 70 | 128 | 0.0 | 1.7 | 0.00 | 0.00 | 0.00 | 89 | 1002.8 |
| 20260505113321 | 70 | 134 | 0.0 | 2.6 | 0.00 | 0.00 | 0.00 | 89 | 1002.9 |
| 20260505112857 | 70 | 128 | 0.0 | 4.3 | 0.00 | 0.00 | 0.00 | 89 | 1002.8 |
| 20260505111825 | 70 | 137 | 0.0 | 1.7 | 0.00 | 0.00 | 0.00 | 89 | 1002.8 |
| 20260505111321 | 70 | 188 | 0.0 | 1.7 | 0.00 | 0.00 | 0.00 | 89 | 1002.8 |
| 20260505110823 | 70 | 138 | 0.0 | 1.7 | 0.00 | 0.00 | 0.00 | 89 | 1002.7 |
| 20260505110358 | 70 | 122 | 0.0 | 1.7 | 0.00 | 0.00 | 0.00 | 88 | 1002.6 |